星链-1920 (STARLINK-1920 )

导读 | 豆包AI

STARLINK-1920是美国SpaceX星链(Starlink)项目卫星,于2020年10月24日发射升空。它属于星链低轨互联网星座的组成部分,运行在近地轨道,旨在为全球提供高速低延迟宽带互联网服务,推进星链星座全球覆盖组网进程,是SpaceX批量部署星链卫星任务中的一颗卫星。

Basic Information
目录编号:
46751
目录名称:
STARLINK-1920
国际标识:
2020-074N
轨道中心:
EARTH
卫星名称:
星链-1920
卫星全名:
星链-1920 (STARLINK-1920 )
卫星状态:
已陨落 最后检测时间 2025-04-30
发射日期:
2020-10-24 UTC
国别 :
美国 (US)
星等 :
--
Orbit Information
数据来源 国际轨道数据
星历时间: 2025-04-30T08:50:46+0800
轨道信息已过期318天
半长轴: 6554.747km
偏心率: 0.001231
轨道倾角: 53.004°
近地点辐角 63.341°
升交点赤经 225.186°
平近点角 296.889°
近地点: 168.543km
远地点: 184.681km
周期: 88.022分钟
每日圈数: 16.359459
Detailed Information
固有亮度:
5
最大亮度:
2.5
卫星平台:
Starlink V1.0
覆盖范围:
全球
运营商:
太空探索技术公司
运营商所在国:
美国
制造商(研发单位):
太空探索技术公司
制造商所在国:
美国
使用方式:
暂无
Satellite Introduction
星链(Starlink)计划是由太空探索技术公司(SpaceX)提出的一个巨型低轨卫星互联网星座项目,计划在2019年至2024年间在太空搭建由约1.2万颗卫星组成的“星链”网络,其中1584颗将部署在地球上空550千米处的近地轨道,并从2020年开始工作。该卫星仍在工作。